Theta_e
353 355 355 354 355 354 356 360 364 363 363 362 361 364 362 359 360 360 362 366 364 363 361 363 364 366 363 361 362 362 364 364 363 363 363 362 361 361 360 359 358 358 357
353 354 355 354 353 354 355 358 360 361 362 360 360 361 362 360 358 359 361 363 367 366 364 362 363 364 364 363 359 359 362 364 363 363 363 361 360 360 360 360 359 358 358
357 362 357 355 355 356 358 360 360 359 356 355 362 362 361 359 361 363 360 360 363 367 365 362 362 365 366 366 365 365 365 363 363 362 362 361 360 360 360 360 359 359 359
361 363 358 356 356 358 356 353 352 351 351 351 352 353 358 354 356 358 358 361 360 361 364 364 363 364 363 364 367 365 365 364 362 363 362 361 361 360 360 360 360 360 359
361 362 358 356 359 357 355 354 352 354 351 351 351 352 353 353 354 353 356 360 364 365 363 365 365 363 363 363 365 366 367 367 364 363 363 363 362 361 360 360 360 360 359
361 362 359 359 360 356 353 354 362 358 357 354 350 351 357 355 354 354 355 357 362 364 364 366 366 364 363 364 365 366 369 368 365 364 363 363 362 361 361 360 360 360 359
361 363 359 358 360 359 361 363 359 364 354 358 355 355 356 355 354 353 354 353 355 359 361 361 362 359 363 364 362 365 368 369 367 365 363 362 362 361 361 361 360 359 359
361 361 363 361 359 355 365 363 365 357 355 364 357 356 346 349 349 357 359 358 355 356 358 361 362 363 364 361 361 362 365 367 368 366 364 362 361 360 360 360 359 359 358
361 363 367 364 368 365 355 370 365 368 355 359 369 357 348 343 349 356 360 360 359 357 354 354 361 364 368 364 365 362 361 361 365 367 366 364 361 359 359 359 359 358 358
364 364 365 369 369 362 367 364 361 367 369 357 358 359 361 358 355 345 356 359 363 364 365 362 356 361 368 363 368 367 362 358 360 363 365 366 364 361 360 360 360 359 358
363 362 365 369 368 364 369 371 370 373 363 360 357 356 361 358 363 352 346 350 356 359 364 363 362 357 364 367 362 362 361 359 359 360 360 362 364 364 363 361 361 361 360
358 367 364 366 367 367 367 366 373 375 373 371 368 364 359 357 353 353 349 353 350 352 354 356 357 357 358 355 364 364 362 360 357 357 357 360 362 364 364 364 363 363 362
353 359 372 366 364 372 370 373 377 377 376 371 376 364 362 361 355 355 353 349 349 352 354 357 357 357 357 358 355 363 365 359 355 353 353 354 356 360 361 362 363 364 363
356 367 361 363 368 372 371 376 368 368 373 373 373 373 368 366 364 362 353 355 352 349 353 360 358 358 359 359 364 364 362 357 355 352 350 350 351 353 356 357 358 359 359
360 363 368 365 366 370 373 378 367 374 373 373 372 374 371 367 372 367 361 368 356 343 345 353 350 365 363 360 361 364 367 356 355 352 348 347 347 348 350 352 352 352 353
369 366 368 368 369 371 374 378 375 377 374 368 371 371 372 366 370 371 367 366 361 358 349 356 355 359 369 361 362 365 364 356 353 352 349 346 345 346 346 347 348 349 348
369 369 371 371 371 371 372 369 368 366 365 367 371 367 369 372 363 364 365 364 362 367 354 356 360 362 368 363 362 362 359 361 356 349 348 346 344 343 343 343 344 345 346
369 369 368 366 364 363 363 360 357 355 352 351 352 356 356 350 358 357 353 356 356 360 361 354 359 358 363 369 366 366 361 357 359 348 345 343 341 340 339 338 338 339 338
362 359 356 355 355 352 349 349 349 347 347 346 348 349 351 353 353 350 354 351 350 350 354 356 352 357 360 362 363 364 363 364 366 346 344 342 340 338 336 335 334 332 330
351 349 347 346 347 346 346 345 342 341 341 340 342 342 343 347 348 349 348 351 352 353 354 350 350 351 355 358 363 357 355 362 357 347 337 335 337 339 337 336 333 332 327
342 341 341 341 342 340 334 333 336 336 336 337 338 338 340 341 339 339 339 341 344 341 340 341 346 349 347 351 352 354 351 355 340 341 336 336 337 337 336 338 340 337 330
341 340 338 336 336 334 323 323 325 329 333 333 334 336 337 338 339 337 336 336 338 341 342 339 337 340 348 348 353 352 351 337 332 342 336 333 339 332 333 334 328 327 328
333 334 334 334 334 329 321 320 322 327 332 333 334 336 337 337 341 333 326 326 335 334 335 342 341 342 344 350 351 351 350 343 340 340 338 328 335 329 333 333 325 324 325
332 331 331 332 330 327 319 318 319 331 333 333 331 332 333 335 334 324 326 327 328 335 343 345 346 347 350 351 353 353 351 344 345 341 342 328 331 328 332 331 324 323 321
331 330 330 329 329 328 318 317 319 327 328 329 329 331 333 331 322 320 322 322 327 332 336 333 333 333 333 332 342 351 340 336 331 335 338 334 331 330 330 331 326 320 317
330 330 329 330 324 329 316 316 318 325 325 325 329 329 327 323 319 317 319 321 321 327 339 344 343 337 334 338 332 349 338 332 332 328 337 335 331 330 324 331 329 330 326
Wind_Speed
4 4 4 4 5 6 6 5 3 2 6 3 11 4 5 7 7 6 4 14 13 12 13 14 13 12 12 13 14 14 15 18 17 17 17 16 16 15 15 14 14 14 14
4 5 4 6 5 6 6 5 6 6 5 3 5 7 4 7 8 11 3 8 15 14 15 15 16 15 14 18 16 16 18 18 18 18 18 17 17 16 16 15 14 14 14
6 6 5 5 5 3 3 8 8 7 9 8 6 8 7 9 10 6 4 4 10 19 16 15 15 17 17 18 19 19 18 17 19 19 18 17 17 17 16 16 15 14 14
7 6 6 7 6 4 5 6 5 5 6 7 7 8 4 6 8 7 9 3 2 8 11 16 16 16 18 19 17 14 14 17 19 19 19 18 18 18 17 16 15 15 14
9 8 8 6 5 7 6 6 5 4 5 7 9 8 7 8 8 9 5 3 5 5 7 17 17 17 17 18 17 17 16 18 19 19 18 18 19 18 18 17 16 16 15
10 8 8 7 6 8 7 5 6 7 7 8 8 7 8 10 6 4 4 7 8 6 7 6 9 11 19 19 18 18 17 18 19 19 19 19 19 19 18 17 17 16 16
9 9 8 8 8 8 6 5 7 7 8 7 6 8 12 10 9 6 6 6 3 7 6 5 6 7 11 20 18 16 14 17 19 20 19 19 19 19 19 18 17 17 17
11 10 9 8 8 7 5 6 7 7 8 3 2 4 8 8 8 3 7 2 6 5 6 10 9 8 7 10 15 18 16 15 17 19 18 18 18 19 19 19 18 18 18
12 12 10 8 8 6 9 6 8 8 8 8 8 3 5 9 11 10 8 0 4 6 8 7 8 8 8 9 6 15 19 18 18 19 19 19 18 18 19 19 19 18 18
12 12 12 10 9 9 8 8 7 7 7 8 9 6 6 5 4 8 9 9 7 9 8 9 9 12 11 10 10 9 20 20 20 20 20 20 18 19 20 20 19 19 18
11 12 11 10 10 9 9 9 9 7 8 8 10 9 9 7 5 8 10 11 12 6 12 10 10 10 11 12 10 11 15 18 18 19 19 20 20 20 21 21 21 21 20
10 13 11 9 9 8 9 8 9 9 10 10 8 10 10 7 10 8 7 11 12 11 12 10 8 8 8 9 12 10 15 18 17 17 18 18 18 18 21 22 21 21 22
8 7 12 9 8 10 9 8 8 9 10 10 10 11 11 11 9 10 11 9 12 11 12 11 9 7 7 7 10 14 16 15 15 15 15 16 17 17 20 21 22 22 22
9 7 7 8 9 9 9 9 9 11 11 8 12 11 11 11 12 12 6 9 9 11 12 14 10 10 8 9 5 10 11 16 15 13 13 14 14 14 15 18 20 21 22
9 7 8 8 9 9 9 9 10 8 9 11 12 11 10 11 10 12 11 8 10 12 12 11 10 10 2 9 8 8 8 13 15 15 15 14 15 15 15 17 18 20 20
8 7 5 7 8 9 9 8 9 8 8 10 8 10 10 11 10 9 9 10 12 11 11 12 12 12 5 6 8 11 9 4 14 15 15 14 14 14 15 17 19 20 20
7 7 7 7 7 7 8 8 9 10 11 11 11 11 13 11 12 11 11 13 13 8 10 12 12 11 12 8 9 9 9 10 11 18 18 18 16 14 15 16 17 17 20
4 2 4 5 6 6 8 9 11 11 12 12 12 12 13 11 13 13 12 14 13 14 8 13 12 12 12 9 8 9 10 10 11 6 2 4 7 10 11 13 14 15 16
3 3 4 4 5 6 7 9 9 10 12 13 13 13 13 13 13 12 13 13 13 12 12 10 13 12 12 11 8 10 11 11 5 10 5 4 4 9 10 10 12 14 14
1 2 3 3 4 6 7 8 10 10 12 13 14 15 15 15 14 13 13 14 13 13 13 13 12 13 10 13 7 8 9 8 7 2 4 4 5 4 5 10 11 13 13
5 5 3 4 6 4 9 9 10 12 12 14 14 15 15 17 18 17 13 15 15 14 14 13 12 11 13 11 11 9 10 9 2 3 2 1 0 2 3 4 7 13 12
5 5 7 7 6 8 14 15 12 12 14 13 13 12 12 17 19 16 15 20 19 15 16 14 14 15 13 11 9 10 9 3 3 5 5 3 2 2 3 4 8 7 9
3 5 5 5 7 8 14 16 15 12 12 12 12 14 12 12 15 10 15 21 19 18 23 17 18 17 16 12 11 12 10 9 9 8 7 3 2 2 1 3 12 12 6
6 4 5 7 6 6 10 10 17 10 10 12 13 12 13 12 10 15 18 18 16 17 19 14 14 15 14 14 12 10 10 9 5 8 8 4 4 3 2 4 9 13 14
4 4 4 4 6 5 4 11 15 13 10 12 12 12 12 11 17 18 17 17 18 18 15 13 10 7 11 13 11 7 6 9 3 4 3 4 4 4 3 4 4 11 13
4 3 2 3 1 5 5 8 10 10 12 11 11 11 10 14 20 19 15 13 14 15 15 13 7 5 7 7 11 9 8 9 6 3 5 4 8 6 4 3 4 5 6
Wind_Direction
268 283 303 293 293 275 261 249 65 206 304 230 247 203 275 292 293 327 115 163 177 193 213 229 229 222 212 222 230 235 237 228 222 222 219 218 221 221 221 218 223 227 228
256 284 248 243 258 269 287 347 338 319 286 323 264 274 244 251 144 242 261 181 181 196 206 218 229 230 224 226 229 245 243 231 223 221 219 217 220 219 220 223 224 227 232
212 268 266 276 274 287 288 238 240 257 258 291 238 233 248 233 249 225 224 192 188 199 202 207 219 234 232 233 242 247 238 224 220 219 218 216 219 219 221 223 225 225 225
239 231 254 246 255 298 275 265 277 286 300 301 302 281 265 318 304 278 256 308 236 189 201 204 205 218 238 238 239 243 237 220 215 216 217 216 218 218 217 222 224 226 221
218 235 264 269 244 265 285 289 307 300 300 292 291 306 312 293 278 282 325 297 263 273 228 191 199 205 218 232 240 240 234 219 213 213 216 218 220 219 219 219 223 223 221
216 226 246 257 272 268 270 312 356 315 311 263 279 307 256 251 283 303 291 247 207 209 253 201 184 213 214 223 228 232 231 210 210 214 214 215 218 219 218 220 218 221 220
226 216 246 250 224 245 272 318 286 255 266 273 328 347 315 251 211 211 208 250 231 219 233 212 236 249 191 211 216 221 225 214 212 213 215 214 216 216 216 215 217 216 219
231 235 238 261 268 282 269 255 259 288 291 286 264 280 299 312 355 217 252 216 242 271 226 210 227 234 266 188 204 208 216 221 217 218 217 217 219 216 214 214 212 213 215
232 234 250 256 279 278 272 245 240 234 278 298 259 259 293 315 329 327 280 5 219 247 252 266 207 221 223 254 218 193 205 212 220 224 221 220 218 219 214 213 211 210 214
222 233 237 237 240 261 283 286 249 245 261 275 289 268 208 254 302 302 310 289 248 230 229 233 250 204 204 223 240 241 192 202 210 221 223 221 219 219 217 213 210 208 209
213 232 234 233 238 240 245 247 273 270 275 278 289 284 281 297 246 249 285 301 291 272 224 200 225 226 205 203 218 227 179 203 210 218 222 223 224 220 215 214 211 208 208
212 211 233 243 247 253 247 251 249 244 249 269 283 287 284 251 260 266 257 275 292 295 290 289 264 240 222 236 212 225 185 190 202 211 221 225 225 222 213 212 213 211 209
237 210 188 213 239 221 241 259 258 254 258 262 271 276 280 281 287 284 280 280 285 288 294 287 272 245 244 229 250 194 180 189 199 206 217 225 226 222 214 211 211 211 212
242 254 208 220 229 238 240 239 245 248 252 260 264 263 276 290 286 285 284 272 285 283 281 275 279 277 210 214 243 200 195 186 195 205 216 223 222 221 214 214 212 211 213
264 255 248 260 257 253 253 256 251 271 280 283 275 272 267 271 272 272 281 303 261 272 269 281 279 293 173 222 215 211 227 188 197 202 212 217 219 218 215 212 213 212 211
230 279 280 260 256 266 277 283 283 289 291 284 287 284 281 279 275 273 271 273 266 234 269 276 282 293 280 225 211 203 215 173 199 204 207 213 221 218 220 219 215 213 211
265 266 269 273 285 314 315 314 301 292 281 287 294 287 282 276 271 265 257 257 265 247 241 262 270 269 292 221 210 195 212 233 231 201 207 209 215 219 219 223 225 221 218
224 299 334 321 313 302 303 306 301 310 304 300 299 299 296 296 293 287 279 277 277 284 263 255 267 278 273 260 244 248 246 234 229 80 158 244 220 223 232 229 225 224 221
49 51 336 305 320 321 320 310 303 306 307 305 304 299 295 292 284 283 283 284 284 286 285 247 256 257 261 264 232 237 240 241 278 124 153 229 268 257 243 233 230 223 220
55 15 10 334 329 341 322 346 342 333 313 306 307 303 300 292 287 287 286 287 285 283 275 273 269 266 262 263 254 239 238 233 224 100 80 41 346 17 270 240 227 221 216
18 18 341 0 357 343 34 7 343 318 308 303 304 302 295 298 300 292 288 283 285 283 283 282 271 265 261 252 242 242 236 221 156 153 144 172 297 349 339 253 255 224 212
21 1 22 14 353 56 20 13 346 315 303 301 300 296 286 292 287 276 269 261 261 270 270 274 279 274 269 267 245 240 231 176 208 187 169 141 144 70 29 359 351 313 236
49 25 25 10 18 40 19 360 331 304 299 308 312 308 313 294 301 4 350 329 304 260 248 259 264 260 269 266 260 246 233 197 226 152 157 123 118 96 45 26 24 38 44
56 34 23 27 19 51 13 337 328 313 318 338 319 306 311 322 352 353 331 312 294 284 280 266 254 263 264 261 246 241 241 199 121 160 169 146 184 144 164 92 32 50 58
50 63 49 26 4 65 5 0 347 333 342 327 325 319 317 342 350 337 321 306 296 285 280 269 260 257 268 261 234 231 192 165 153 173 184 125 160 145 157 89 65 65 58
64 60 68 47 157 12 70 1 350 335 347 334 338 337 344 355 337 323 316 301 286 283 287 291 250 239 241 229 223 212 165 171 150 143 197 164 151 167 143 148 131 117 90